Location: Caltech
(34.1382°N, 118.1253°W)
Time: 10:23:59
(UTC-07:00)

Courier 1B - Visible Passes

Search period start: 16 August 2017 00:00
Search period end: 26 August 2017 00:00
Orbit: 963 x 1209 km, 28.3° (Epoch: 15 August)

Date Brightness Start Highest point End Pass type
(mag) Time Alt. Az. Time Alt. Az. Time Alt. Az.
16 Aug 9.4 02:56:08 19° ESE 02:56:08 19° ESE 02:58:23 10° ESE visible
16 Aug 8.0 04:43:01 28° SW 04:46:18 49° S 04:52:38 10° E visible
17 Aug 8.0 03:52:32 44° S 03:52:37 44° SSE 03:58:57 10° E visible
17 Aug 7.9 05:39:43 10° WSW 05:46:22 53° S 05:52:42 10° ESE visible
18 Aug 9.0 03:02:04 26° ESE 03:02:04 26° ESE 03:05:14 10° E visible
18 Aug 7.8 04:48:58 27° WSW 04:52:41 53° S 04:59:07 10° ESE visible
19 Aug 7.8 03:58:30 51° S 03:58:57 52° S 04:05:30 10° E visible
19 Aug 8.0 05:46:08 10° W 05:52:43 48° S 05:58:59 10° ESE visible
20 Aug 8.8 03:08:06 32° ESE 03:08:06 32° ESE 03:11:51 10° E visible
20 Aug 7.9 04:55:00 24° WSW 04:59:02 52° S 05:05:30 10° ESE visible
21 Aug 10.0 02:17:44 12° E 02:17:44 12° E 02:18:09 10° E visible
21 Aug 7.7 04:04:38 52° SSW 04:05:19 54° S 04:11:56 10° ESE visible
21 Aug 8.3 05:52:39 10° W 05:59:01 38° SSW 06:05:04 10° SE visible
22 Aug 8.7 03:14:20 35° ESE 03:14:20 35° ESE 03:18:20 10° ESE visible
22 Aug 8.0 05:01:14 22° WSW 05:05:21 45° SSW 05:11:43 10° ESE visible
23 Aug 9.9 02:24:06 13° E 02:24:06 13° E 02:24:41 10° E visible
23 Aug 7.8 04:11:00 49° SSW 04:11:39 50° S 04:18:16 10° ESE visible
24 Aug 8.7 03:20:52 33° SE 03:20:52 33° SE 03:24:43 10° ESE visible
24 Aug 8.4 05:07:47 21° WSW 05:11:35 34° SSW 05:17:38 10° SE visible
25 Aug 10.0 02:30:49 11° ESE 02:30:49 11° ESE 02:31:06 10° ESE visible
25 Aug 8.1 04:17:45 41° SSW 04:17:55 41° SSW 04:24:22 10° SE visible
25 Aug 9.9 21:37:33 10° SSW 21:37:45 10° S 21:37:45 10° S visible
